CDT,Max TemperatureF,Mean TemperatureF,Min TemperatureF,Max Dew PointF,MeanDew PointF,Min DewpointF,Max Humidity, Mean Humidity, Min Humidity, Max Sea Level PressureIn, Mean Sea Level PressureIn, Min Sea Level PressureIn, Max VisibilityMiles, Mean VisibilityMiles, Min VisibilityMiles, Max Wind SpeedMPH, Mean Wind SpeedMPH, Max Gust SpeedMPH,PrecipitationIn, CloudCover, Events, WindDirDegrees
2013-5-1,53,42,32,36,30,25,87,74,47,30.44,30.24,29.88,10,7,0,13,5,17,0.11,8,,299
2013-5-2,32,30,28,28,26,23,93,86,80,30.49,30.45,30.39,4,1,0,12,1,20,0.00,8,,25
2013-5-3,32,28,26,27,25,23,93,85,80,30.39,30.25,30.17,10,2,0,13,8,20,0.00,8,,26
2013-5-4,35,32,30,30,29,27,93,88,80,30.20,30.17,30.15,10,2,0,8,4,,0.05,8,,28
2013-5-5,46,38,30,37,31,27,93,84,66,30.19,30.15,30.10,10,5,0,10,2,,0.21,5,,29
2013-5-6,64,46,28,45,38,25,86,61,45,30.10,30.05,30.02,10,10,10,7,2,,0.00,0,,357
2013-5-7,71,53,35,43,37,30,93,54,31,30.07,30.01,29.96,10,10,10,12,2,,0.00,0,,30
2013-5-8,75,67,57,41,40,39,51,36,27,30.01,29.98,29.95,10,10,10,9,5,,0.00,2,,16
2013-5-9,,,,,,,,,,,,,,,,,,,,,,
2013-5-10,48,40,33,28,27,25,75,56,46,30.12,30.02,29.92,10,10,10,13,6,,0.00,0,,7
2013-5-11,42,38,35,30,27,25,81,66,49,30.03,29.92,29.86,10,10,9,24,14,29,0.00,8,,310
2013-5-12,42,36,30,21,19,18,64,52,36,30.10,30.08,30.06,10,10,10,15,10,23,0.00,4,,337
2013-5-13,57,40,24,27,21,18,80,54,25,30.09,29.99,29.80,10,10,10,14,3,23,0.00,2,,200
2013-5-14,84,70,57,45,43,37,48,33,25,29.74,29.49,29.37,10,10,10,21,9,30,0.00,0,,189
2013-5-15,73,66,59,39,37,36,48,32,25,29.79,29.75,29.52,10,10,10,17,14,25,0.00,1,,308
2013-5-16,50,49,48,39,38,37,71,66,62,29.86,29.85,29.84,10,10,10,5,4,,0.00,0,,253
2013-5-17,,,,,,,,,,,,,,,,,,,,,,
2013-5-18,,,,,,,,,,,,,,,,,,,,,,
2013-5-19,,,,,,,,,,,,,,,,,,,,,,
2013-5-20,,,,,,,,,,,,,,,,,,,,,,
2013-5-21,53,46,39,46,40,37,93,82,71,29.74,29.65,29.57,10,8,2,12,7,,0.39,7,,292
2013-5-22,48,44,41,45,40,34,87,83,70,30.03,29.83,29.73,10,8,1,18,5,25,0.31,8,,31
2013-5-23,51,43,35,34,28,25,76,61,37,30.33,30.23,30.04,10,10,10,16,10,28,0.01,3,,31
2013-5-24,60,48,35,36,32,28,81,39,31,30.40,30.30,30.25,10,10,10,13,5,,0.00,0,,16
2013-5-25,66,63,60,39,37,34,45,37,32,30.30,30.27,30.24,10,10,10,14,9,20,0.00,0,,90
2013-5-26,71,66,60,34,29,27,36,24,20,30.29,30.16,30.12,10,10,10,13,8,18,0.00,0,,150
2013-5-27,,,,,,,,,,,,,,,,,,,,,,
2013-5-28,64,60,55,52,47,39,77,62,51,29.81,29.75,29.71,10,10,10,12,5,,0.00,7,,138
2013-5-29,80,68,55,61,53,50,88,66,36,29.81,29.75,29.70,10,10,5,16,5,16,0.00,5,,197
2013-5-30,80,74,69,64,62,61,83,68,51,29.71,29.68,29.64,10,10,8,18,11,23,0.08,2,,168
2013-5-31,80,68,57,61,52,46,82,61,37,29.64,29.60,29.54,10,10,5,22,12,44,0.28,3,Thunderstorm,187